Retour au catalogue

CRRES DEB

CANISTER

ActifHEO
NORAD 21588·DEBRIS·🇺🇸 United States

Lancé Jul 25, 1990 depuis Cape Canaveral Space Force Station

Loading…

Prochains Passages (prochaines 24 heures)

TLE

FraisSource: Space-Track

Époque: Sep 12, 2026, 18:48 UTC

1 21588U 90065D   26255.78355534  .00000144  00000-0  53694-3 0  9993
2 21588  18.1765 133.6087 7007676 197.1239 115.1076  2.54645242128430

Suivez CRRES DEB en temps réel avec AllMySat

Download on the App Store